GFSFLT2_sfc_rhum_153.txt.gz
RH
73 74 66 70 73 75 74 72 71 67 67 70 69 71 71 71 74 76 78 79 81 90 93 92 93 97 96 96 95 93 96 98
74 75 75 71 74 66 65 67 70 63 63 67 69 71 69 68 70 71 74 74 76 79 83 94 94 95 97 98 97 94 96 97
75 76 76 73 67 64 69 65 70 67 63 69 76 76 80 77 68 67 67 70 72 73 74 82 94 95 95 96 98 99 97 96
78 79 79 75 58 77 76 66 76 76 70 74 82 80 72 68 70 66 69 68 71 71 71 74 79 90 96 96 99 99 98 94
76 75 78 79 80 80 75 79 80 78 77 79 86 77 81 76 74 74 79 73 78 76 75 76 83 86 87 92 95 99 98 98
73 74 75 78 82 80 81 73 75 74 76 81 82 82 80 81 78 80 79 81 85 87 90 86 84 82 83 84 90 97 96 98
72 72 76 74 74 81 76 78 75 78 76 76 79 80 80 80 80 80 80 77 79 81 86 88 90 88 87 86 83 85 95 96
70 73 73 70 73 76 80 78 79 78 74 77 74 75 74 73 74 77 75 73 75 78 79 89 90 92 87 85 86 88 91 96
68 71 70 72 74 75 77 74 75 75 75 72 71 71 72 72 73 75 73 70 73 75 74 76 77 75 84 87 88 84 86 92
69 60 70 73 74 77 72 78 80 76 79 75 72 71 71 72 75 75 74 73 72 74 74 76 76 75 76 76 87 90 85 86
71 70 72 72 73 76 78 80 75 77 77 70 70 72 72 74 76 78 78 79 79 79 77 80 79 77 73 70 72 81 82 69
71 71 71 72 76 78 77 79 80 75 73 70 72 74 72 77 76 80 78 80 79 78 79 74 76 76 70 72 76 72 74 83
72 72 74 75 78 82 83 85 80 77 73 71 72 73 76 75 79 78 78 79 80 78 79 79 76 71 69 78 75 82 78 70
74 73 75 76 80 83 82 81 82 81 79 76 74 75 77 72 81 82 78 83 83 82 82 82 74 69 78 76 91 87 90 79
71 74 77 77 76 78 80 82 82 83 80 80 78 77 78 80 80 85 82 84 84 81 81 89 92 79 72 86 89 95 83 90
70 72 79 76 78 83 88 95 95 91 91 86 82 79 78 82 82 85 86 86 84 85 77 87 92 93 81 67 74 78 92 93
77 79 80 80 82 84 91 94 94 91 94 92 88 84 79 74 84 87 82 87 86 87 88 90 95 97 96 90 81 81 80 94
80 81 83 82 84 87 90 92 90 96 97 97 93 87 81 78 76 82 77 84 88 88 95 93 98 98 96 95 95 94 84 90
78 81 86 86 88 89 91 91 93 96 97 98 84 84 83 83 78 79 83 85 86 88 88 89 95 97 98 97 95 95 87 82
77 82 87 86 87 90 93 93 97 97 97 97 98 90 94 88 88 85 85 86 88 89 89 90 92 96 98 98 99 96 95 92

GFSFLT2_sfc_rhum_156.txt.gz
RH
74 75 69 75 70 71 72 67 64 65 67 66 67 66 67 68 69 68 71 73 75 76 79 85 92 95 95 98 96 94 94 95
75 75 73 73 75 68 69 66 63 64 67 66 66 71 68 67 67 66 67 68 68 70 72 75 77 82 94 97 98 96 95 95
77 76 76 72 66 66 74 66 68 71 71 67 74 79 81 79 67 66 66 69 68 68 68 68 71 76 75 83 95 98 96 94
79 79 78 76 60 78 79 71 79 80 78 81 82 83 75 71 72 69 70 70 70 69 69 69 74 84 88 82 92 93 97 94
77 77 80 79 81 82 84 82 86 85 82 85 88 81 82 81 80 81 82 72 77 74 76 75 84 85 87 89 86 89 95 95
75 76 76 80 84 84 82 79 81 80 81 78 80 78 78 79 79 83 77 78 83 84 88 84 87 83 83 84 85 88 91 93
76 75 76 75 76 83 80 84 82 82 76 74 76 75 75 74 74 76 75 73 75 76 82 82 83 80 80 81 79 82 85 91
75 74 74 72 76 80 85 81 84 80 74 74 74 77 75 74 76 74 74 72 72 75 76 78 86 85 81 77 78 82 82 84
72 73 74 76 78 79 84 79 78 79 74 75 75 77 77 78 80 77 76 76 78 75 74 75 75 73 79 78 80 78 80 83
70 62 74 76 79 83 75 80 82 81 78 80 76 76 75 79 78 80 79 78 77 78 77 80 79 75 73 73 79 82 80 81
73 73 75 77 78 80 82 80 82 82 81 76 75 76 78 82 82 83 80 78 79 78 79 80 79 76 71 66 68 74 74 61
73 74 74 76 82 82 83 83 82 80 77 76 77 80 79 84 83 83 78 78 81 80 81 79 80 78 66 66 69 70 74 74
72 73 76 76 80 82 84 88 84 82 79 78 80 80 81 81 83 85 79 82 84 82 80 83 81 73 77 72 70 66 67 69
76 75 77 79 82 86 85 87 86 83 83 82 82 81 81 74 82 85 83 85 83 80 80 87 82 73 84 83 82 70 70 64
77 79 79 78 74 78 80 80 85 88 89 86 85 82 81 82 83 85 83 78 87 88 82 85 92 78 74 94 88 92 82 75
78 78 81 78 78 82 84 90 93 95 96 94 91 86 86 80 82 83 76 83 85 85 78 87 94 95 88 82 87 94 96 90
85 83 81 82 84 84 91 94 96 95 97 94 96 89 89 81 78 74 76 80 84 81 88 88 88 96 96 96 96 92 94 97
91 84 85 84 86 87 88 92 93 96 96 98 92 90 88 82 80 75 76 83 86 84 89 86 88 88 92 96 99 98 94 98
90 86 89 88 87 89 91 93 94 96 97 98 97 86 94 93 94 90 89 89 83 90 88 87 90 92 91 93 95 98 96 95
83 87 90 87 86 92 94 93 97 97 96 97 98 96 97 94 96 87 88 89 88 86 88 85 88 91 90 94 94 99 99 96

GFSFLT2_sfc_rhum_159.txt.gz
RH
63 62 69 72 73 69 67 68 69 68 66 67 67 66 67 66 66 67 68 68 68 68 70 72 75 78 80 85 95 98 74 60
63 61 58 63 63 67 68 69 68 68 67 68 68 65 66 67 63 68 68 68 68 68 68 68 68 69 72 74 81 92 67 61
66 61 59 58 56 59 65 69 69 66 62 68 60 56 56 54 65 68 67 68 67 67 67 66 66 61 66 72 74 73 77 70
64 66 63 59 46 57 58 55 58 59 60 61 56 61 59 54 60 67 65 67 64 64 65 60 53 42 41 52 49 57 64 75
60 64 68 61 56 51 48 50 54 57 63 60 60 52 54 49 50 51 52 56 47 48 48 44 56 53 46 49 48 49 49 58
58 60 62 65 54 52 52 49 51 52 56 62 56 50 53 52 49 48 52 49 55 52 52 57 58 57 54 54 53 51 44 45
58 55 57 58 61 57 57 55 53 55 53 60 55 50 55 51 52 48 49 49 50 52 52 52 56 56 56 57 55 53 53 48
58 54 58 57 61 64 60 57 55 52 52 57 64 56 58 53 52 51 50 51 52 53 55 55 54 56 55 55 57 54 52 54
57 61 59 60 60 58 58 54 51 51 52 63 63 62 61 60 55 55 54 54 56 53 54 53 53 50 54 50 50 52 51 56
51 49 58 61 61 55 51 54 52 50 53 55 64 65 65 59 56 57 60 54 53 54 55 58 55 54 54 51 50 51 52 55
54 58 58 60 61 55 56 60 52 51 52 52 63 65 67 60 59 61 62 55 57 58 59 60 60 58 55 52 51 51 51 43
53 54 60 61 56 55 51 50 52 51 51 55 63 62 65 61 58 66 60 58 58 60 62 58 59 61 54 52 52 50 50 50
52 56 60 56 52 51 50 48 49 51 51 61 62 63 66 61 59 63 63 63 65 64 64 68 63 59 62 61 53 49 54 50
56 53 54 51 46 48 47 50 50 52 54 58 62 65 66 60 66 64 68 63 68 69 69 74 66 70 85 77 62 52 50 50
56 53 52 52 54 52 51 52 50 48 53 54 61 65 66 68 67 67 65 64 70 68 68 79 86 73 77 94 83 72 81 46
56 56 54 53 53 45 43 33 35 52 55 54 56 64 67 66 67 66 65 64 66 69 66 76 79 84 79 75 84 95 97 84
60 60 58 57 53 50 45 49 51 53 53 56 59 61 65 64 66 66 65 64 70 68 73 74 78 88 85 85 81 88 88 98
63 61 60 59 54 55 53 53 52 44 48 50 54 59 60 60 60 64 66 66 69 69 74 75 78 80 82 82 85 96 95 97
64 60 60 60 59 56 56 55 54 51 51 52 53 56 59 56 57 62 64 68 68 73 74 72 77 82 88 86 80 83 94 95
62 61 62 61 59 58 56 54 50 50 54 52 52 61 63 56 59 58 66 69 67 69 70 67 75 81 82 81 85 85 88 96

GFSFLT2_sfc_rhum_162.txt.gz
RH
58 57 66 71 70 72 71 69 68 68 68 67 66 65 66 63 66 66 66 65 66 65 66 66 66 68 71 75 78 79 68 48
56 54 52 51 55 69 69 69 68 66 64 62 55 56 52 59 54 65 65 65 63 64 66 64 62 60 60 67 71 77 53 56
55 51 50 49 46 52 58 60 57 52 50 56 49 39 40 38 61 63 62 64 58 60 61 60 54 53 53 56 64 41 46 47
53 54 50 44 33 44 43 40 42 45 45 45 41 46 44 37 44 49 49 55 46 50 49 48 44 29 26 41 25 32 35 40
48 55 54 44 41 33 29 33 36 42 52 48 48 39 40 33 32 32 37 41 33 34 33 30 42 40 35 36 34 34 25 25
45 48 51 50 37 33 33 31 35 37 44 50 41 34 40 39 34 33 37 35 42 39 36 44 44 43 42 43 43 40 32 28
44 44 46 47 46 43 42 39 39 40 39 49 42 36 44 38 38 34 35 34 36 38 39 42 45 43 44 45 44 44 43 36
44 42 46 45 49 53 46 44 40 38 40 46 52 43 48 38 38 35 35 37 40 41 44 44 44 45 44 44 44 42 41 43
45 49 47 48 48 44 43 38 36 37 38 53 52 51 49 48 39 40 41 43 46 44 46 44 43 41 45 42 42 44 40 43
39 35 46 47 48 40 36 39 36 35 37 41 54 55 54 46 40 44 52 44 43 44 45 47 46 45 45 43 42 42 44 46
40 44 46 47 48 42 44 47 35 34 35 37 51 53 56 47 44 51 55 45 47 48 48 51 50 48 44 42 42 41 42 35
40 41 48 46 42 41 35 35 35 33 34 39 50 49 53 49 45 56 53 48 48 51 57 52 51 49 46 44 45 42 40 42
40 45 50 41 36 35 35 34 34 34 35 46 48 50 54 52 46 52 54 51 57 58 54 58 52 52 56 52 44 40 45 42
40 41 46 39 34 33 31 31 31 33 36 44 48 50 53 47 56 52 56 53 58 58 59 58 55 56 70 62 54 42 42 44
40 39 40 39 37 35 34 35 35 35 34 34 44 50 53 57 56 55 56 54 53 57 57 65 62 56 64 83 85 64 73 42
40 40 39 40 39 33 36 23 23 30 34 35 37 50 52 53 56 56 57 53 58 55 52 62 64 71 65 62 69 84 93 83
44 43 39 40 38 36 34 30 30 31 35 43 45 47 51 46 51 55 56 52 56 61 63 63 63 72 70 70 72 72 69 96
46 44 42 43 42 41 38 39 34 30 33 33 35 38 39 43 42 50 53 55 57 57 61 62 64 66 69 68 76 87 82 90
48 44 44 46 46 40 40 39 38 36 34 31 35 37 38 41 43 48 48 55 56 57 58 58 62 73 76 76 72 74 78 84
49 46 47 48 45 42 40 39 32 31 34 31 36 39 39 44 44 44 52 55 55 55 49 52 59 71 73 76 74 76 78 81

GFSFLT2_sfc_rhum_165.txt.gz
RH
64 60 67 75 75 72 71 70 69 68 66 64 62 64 63 60 66 65 66 65 64 63 64 64 62 61 59 62 67 68 59 53
61 58 51 54 59 71 69 67 65 62 60 54 58 53 56 58 51 62 61 60 57 58 59 59 56 56 60 62 64 65 41 50
58 55 51 51 47 55 59 57 53 59 52 49 52 36 36 33 54 53 53 56 49 51 50 53 56 56 61 60 59 22 24 30
56 55 51 43 30 42 40 37 40 42 41 41 37 41 38 31 38 42 40 49 44 48 48 55 46 27 25 39 24 27 28 24
51 54 51 43 38 31 28 30 33 41 48 44 44 36 38 30 29 29 34 40 29 32 30 28 40 38 34 36 34 35 27 24
48 49 49 46 36 29 30 29 33 35 43 46 40 32 40 38 32 30 34 29 37 39 36 44 44 43 41 42 42 40 34 31
45 45 47 44 42 37 36 36 34 37 37 47 40 35 44 36 36 30 31 31 37 39 40 42 44 43 43 43 42 44 42 36
43 40 45 42 42 48 45 40 40 37 39 44 49 40 47 36 34 32 32 38 39 39 43 42 43 44 42 43 44 43 43 44
42 45 45 46 47 42 39 34 33 35 38 50 49 48 48 46 36 37 41 42 43 41 43 42 42 40 43 41 41 43 40 42
40 36 43 45 44 37 34 36 33 33 35 40 50 50 50 43 36 42 51 42 40 42 44 47 46 45 44 41 40 41 43 44
37 41 43 45 45 39 41 43 33 31 32 35 47 47 49 44 39 47 53 42 46 48 50 51 50 47 43 42 43 41 41 34
36 40 46 44 39 38 34 35 33 31 32 38 44 44 46 45 39 51 49 45 48 52 56 50 49 48 43 42 45 42 39 38
37 41 47 40 36 34 34 34 34 34 36 41 42 45 48 46 41 46 50 50 55 55 53 56 48 49 51 50 43 39 40 43
37 41 44 35 30 29 30 30 30 32 34 42 43 44 47 40 50 46 53 51 54 56 57 55 48 52 60 56 56 43 45 46
36 38 39 34 33 33 33 32 35 35 36 34 40 43 45 50 49 50 52 50 49 53 55 58 58 53 59 70 75 63 70 45
36 37 37 35 37 32 36 27 27 29 31 32 36 44 46 45 49 50 52 48 53 52 49 55 58 58 56 54 62 71 89 80
38 37 35 37 34 33 34 29 31 30 31 42 40 46 45 40 44 48 51 47 52 56 57 56 52 56 62 67 69 68 66 92
41 40 35 38 36 37 35 36 31 30 33 36 34 36 36 40 38 45 48 50 52 51 55 54 55 59 67 70 75 83 81 88
44 37 36 39 41 40 39 39 36 36 36 30 33 35 34 40 40 45 44 50 51 51 52 53 52 63 70 74 72 74 76 81
45 38 39 40 42 40 39 38 33 33 31 30 33 34 35 42 42 42 46 48 48 50 44 46 52 59 66 73 76 76 76 80

GFSFLT2_sfc_rhum_171.txt.gz
RH
82 82 82 85 85 84 83 80 76 73 70 66 65 65 65 61 59 56 57 55 52 52 51 53 55 62 68 72 74 69 66 56
83 80 84 86 82 80 77 73 69 67 67 67 68 64 56 52 56 52 53 52 48 48 51 60 57 58 65 66 67 59 49 46
87 85 82 85 82 73 70 66 64 64 62 64 74 65 64 58 54 51 49 60 52 56 60 58 57 58 58 63 59 52 52 49
76 81 81 79 60 75 78 70 78 72 66 67 72 59 54 55 54 54 58 58 56 56 58 56 59 63 63 61 62 58 59 54
72 76 75 68 63 78 79 76 79 76 69 65 66 62 68 67 68 64 61 63 62 61 63 62 62 64 66 64 62 62 67 61
74 70 68 74 71 70 69 69 77 77 72 72 75 76 71 66 65 63 66 73 67 70 73 66 67 63 62 64 63 65 66 64
70 73 79 65 69 75 69 74 73 75 73 72 76 73 73 68 67 70 70 70 69 73 73 73 71 69 66 64 64 64 64 66
71 69 75 67 74 69 74 68 72 77 77 74 74 76 71 68 71 74 73 75 75 75 76 77 76 72 68 66 64 61 59 61
76 72 71 71 71 68 67 67 69 75 77 73 71 71 70 70 80 78 77 75 73 76 76 77 78 70 72 65 63 61 63 64
65 59 73 73 66 68 67 71 73 74 79 78 71 68 70 75 81 77 79 77 77 78 80 80 80 81 71 72 72 70 62 61
63 69 79 75 71 66 70 67 68 72 79 78 71 69 70 77 81 78 78 80 83 77 81 81 84 74 60 68 76 70 74 52
59 64 75 75 72 65 70 64 71 70 73 76 69 70 68 77 78 77 78 80 80 81 77 76 81 72 60 64 72 77 63 68
58 68 73 65 60 59 60 62 63 71 69 68 70 68 69 71 79 78 78 78 79 74 80 81 80 71 86 84 77 73 62 69
58 62 62 64 58 53 51 53 63 66 73 70 70 68 70 67 76 78 76 77 79 79 82 83 83 79 89 93 92 78 72 71
57 61 56 58 55 51 55 57 65 73 71 71 70 68 69 71 72 75 76 79 84 81 81 80 85 83 78 92 95 97 84 78
54 57 53 53 54 51 48 49 56 67 65 71 71 64 65 68 71 73 79 82 80 77 77 82 82 89 88 71 75 79 98 92
55 55 51 48 49 46 48 52 59 64 66 68 71 65 62 63 69 73 77 81 80 76 84 82 82 89 89 86 70 78 77 91
54 54 50 54 49 48 54 58 56 59 69 71 71 67 66 64 63 73 73 76 76 80 80 82 84 86 86 81 79 90 86 91
53 52 50 52 50 48 62 49 50 55 60 67 71 68 66 64 67 73 73 72 71 77 77 81 84 91 88 84 77 81 82 85
52 51 52 49 61 62 53 49 53 56 59 59 71 65 64 62 68 69 68 67 68 76 78 79 87 91 87 86 79 83 87 87